This demonstration page uses our WeatherBlox Daily Observations layout. Learn more.

Left ArrowRight Arrow

40.92945, -100.16068

Hourly Observations for July 27, 2020

Temp ( °F °C ) Dew Point ( °F °C ) Humidity (%) Winds ( mph kmh ) Pressure ( in mb ) Visibility ( mi km ) Precip ( " mm )
12:15 am 00:15 Partly Cloudy 71 21.6 68 20.1 91 91 NNE 5 7 30.01 1016 10 16.0934 0 0
12:35 am 00:35 Partly Cloudy 71 21.5 69 20.4 93 93 N 5 7 30.01 1016 10 16.0934 0 0
12:55 am 00:55 Clear 70 21.2 68 20.1 93 93 Calm 30.02 1017 10 16.0934 0 0
1:15 am 01:15 Clear 70 21 68 20 94 94 N 6 9 30.02 1017 10 16.0934 0 0
1:35 am 01:35 Clear 70 21.1 68 20 93 93 N 5 7 30.02 1017 10 16.0934 0 0
1:55 am 01:55 Clear 70 20.9 68 20.2 96 96 N 6 9 30.03 1017 10 16.0934 0 0
2:15 am 02:15 Clear 70 21.1 69 20.5 96 96 N 7 11 30.03 1017 10 16.0934 0 0
2:35 am 02:35 Clear 70 21.3 69 20.8 97 97 N 7 11 30.02 1017 7 11.26538 0 0
2:55 am 02:55 Partly Cloudy 71 21.5 70 21 97 97 NNE 5 7 30.02 1017 7 11.26538 0 0
3:15 am 03:15 Partly Cloudy 70 21.3 69 20.8 97 97 N 6 9 30.01 1016 7 11.26538 0 0
3:35 am 03:35 Mostly Cloudy 70 21.1 69 20.6 97 97 N 6 9 30.01 1016 7 11.26538 0 0
3:55 am 03:55 Cloudy 70 21.2 69 20.5 96 96 N 7 11 30.01 1016 10 16.0934 0 0
4:15 am 04:15 Partly Cloudy 70 21.2 69 20.5 96 96 NNE 6 9 30.01 1016 10 16.0934 0 0
4:35 am 04:35 Mostly Cloudy 70 21.1 69 20.5 96 96 NNE 5 7 30.01 1016 7 11.26538 0 0
4:55 am 04:55 Cloudy 70 21.1 69 20.5 96 96 NNE 5 7 30 1016 7 11.26538 0 0
5:15 am 05:15 Mostly Cloudy 70 21 69 20.3 96 96 NE 6 9 30.01 1016 7 11.26538 0 0
5:35 am 05:35 Mostly Cloudy 70 21 68 20.2 95 95 NNE 7 11 30.01 1016 10 16.0934 0 0
5:55 am 05:55 Cloudy 70 21 68 20.1 95 95 NNE 8 13 30.02 1017 10 16.0934 0 0
6:15 am 06:15 Cloudy 69 20.6 67 19.5 93 93 NNE 8 13 30.04 1017 10 16.0934 0 0
6:35 am 06:35 Cloudy 69 20.3 67 19.2 93 93 NE 6 9 30.04 1017 10 16.0934 0 0
6:55 am 06:55 Cloudy 68 20.1 66 19 93 93 NNE 6 9 30.05 1018 10 16.0934 0 0
7:15 am 07:15 Cloudy 68 20 66 18.8 93 93 NE 6 9 30.05 1018 10 16.0934 0 0
7:35 am 07:35 Cloudy 68 20 66 18.7 92 92 NNE 7 11 30.06 1018 10 16.0934 0 0
7:55 am 07:55 Cloudy 68 20.1 66 19 93 93 NNE 8 13 30.06 1018 10 16.0934 0 0
8:15 am 08:15 Cloudy 68 20.2 66 19 93 93 NNE 9 15 30.07 1018 10 16.0934 0 0
8:35 am 08:35 Cloudy 68 20.2 66 19 93 93 NE 8 13 30.08 1019 10 16.0934 0 0
8:55 am 08:55 Cloudy 69 20.5 67 19.4 93 93 NE 7 11 30.08 1019 7 11.26538 0 0
9:15 am 09:15 Cloudy with Mist and Fog 69 20.7 67 19.7 94 94 NE 8 13 30.09 1019 5 8.0467 0 0
9:35 am 09:35 Cloudy 70 21.1 68 20 93 93 ENE 10 17 30.07 1018 7 11.26538 0 0
9:55 am 09:55 Cloudy 71 21.6 68 20.2 92 92 NE 8 13 30.07 1018 10 16.0934 0 0
10:15 am 10:15 Cloudy 73 22.5 68 20.1 86 86 ENE 8 13 30.07 1018 10 16.0934 0 0
10:35 am 10:35 Cloudy 72 22.3 67 19.2 83 83 ENE 8 13 30.07 1018 10 16.0934 0 0
10:55 am 10:55 Cloudy 74 23.1 65 18.3 74 74 NE 9 15 30.07 1018 10 16.0934 0 0
11:15 am 11:15 Mostly Cloudy 75 23.7 65 18.1 71 71 NNE 9 15 30.06 1018 10 16.0934 0 0
11:35 am 11:35 Mostly Cloudy 75 24 62 16.9 65 65 NE 9 15 30.06 1018 10 16.0934 0 0
11:55 am 11:55 Partly Cloudy 75 24.1 64 17.5 67 67 ENE 10 17 30.06 1018 10 16.0934 0 0
12:15 pm 12:15 Sunny 76 24.5 64 17.8 66 66 NE 9 15 30.05 1018 10 16.0934 0 0
12:35 pm 12:35 Partly Cloudy 77 25.2 64 17.6 63 63 ENE 12 19 30.05 1018 10 16.0934 0 0
12:55 pm 12:55 Sunny 78 25.4 63 17 60 60 E 13 20 30.05 1017 10 16.0934 0 0
1:15 pm 13:15 Sunny 78 25.7 64 17.5 61 61 E 9 15 30.03 1017 10 16.0934 0 0
1:35 pm 13:35 Sunny 79 26 63 17.2 58 58 ENE 8 13 30.03 1017 10 16.0934 0 0
1:55 pm 13:55 Sunny 79 26.1 61 16.2 54 54 NE 8 13 30.02 1017 10 16.0934 0 0
2:15 pm 14:15 Sunny 79 26.2 60 15.5 52 52 ENE 8 13 30.01 1016 10 16.0934 0 0
2:35 pm 14:35 Sunny 80 26.5 63 17 56 56 E 8 13 30.01 1016 10 16.0934 0 0
2:55 pm 14:55 Sunny 80 26.7 62 16.7 54 54 SSE 3 6 30 1016 10 16.0934 0 0
3:15 pm 15:15 Sunny 81 27.2 63 17.4 55 55 ESE 10 17 29.99 1016 10 16.0934 0 0
3:35 pm 15:35 Sunny 81 27 63 17.3 55 55 E 7 11 29.98 1015 10 16.0934 0 0
3:55 pm 15:55 Sunny 81 27.2 64 17.6 56 56 E 7 11 29.98 1015 10 16.0934 0 0
4:15 pm 16:15 Sunny 82 27.5 64 17.7 55 55 E 7 11 29.97 1015 10 16.0934 0 0
4:35 pm 16:35 Sunny 82 27.6 62 16.6 51 51 E 9 15 29.97 1015 10 16.0934 0 0
4:55 pm 16:55 Sunny 82 27.8 60 15.8 48 48 ESE 5 7 29.97 1015 10 16.0934 0 0
5:15 pm 17:15 Sunny 82 27.8 58 14.2 43 43 E 7 11 29.96 1014 10 16.0934 0 0
5:35 pm 17:35 Sunny 82 27.8 56 13.4 41 41 E 5 7 29.96 1014 10 16.0934 0 0
5:55 pm 17:55 Sunny 82 27.8 57 13.8 42 42 ESE 5 7 29.95 1014 10 16.0934 0 0
6:15 pm 18:15 Sunny 82 27.7 58 14.4 44 44 ENE 5 7 29.95 1014 10 16.0934 0 0
6:35 pm 18:35 Sunny 82 27.7 60 15.4 47 47 E 5 7 29.94 1014 10 16.0934 0 0
6:55 pm 18:55 Sunny 82 27.5 61 16.1 50 50 E 3 6 29.94 1014 10 16.0934 0 0
7:15 pm 19:15 Sunny 82 27.5 62 16.5 51 51 SE 6 9 29.94 1014 10 16.0934 0 0
7:35 pm 19:35 Sunny 81 27.3 62 16.6 52 52 ESE 7 11 29.93 1014 10 16.0934 0 0
7:55 pm 19:55 Sunny 81 27 63 17 54 54 SE 5 7 29.92 1013 10 16.0934 0 0
8:15 pm 20:15 Sunny 80 26.5 64 17.6 58 58 ESE 5 7 29.93 1013 10 16.0934 0 0
8:35 pm 20:35 Sunny 78 25.8 64 18 62 62 SE 6 9 29.93 1014 10 16.0934 0 0
8:55 pm 20:55 Sunny 77 25 63 17.1 62 62 SE 6 9 29.95 1014 10 16.0934 0 0
9:15 pm 21:15 Clear 75 24 63 17.4 67 67 SE 6 9 29.96 1014 10 16.0934 0 0
9:35 pm 21:35 Clear 74 23.6 64 17.7 70 70 SE 5 7 29.97 1015 10 16.0934 0 0
9:55 pm 21:55 Clear 74 23.2 64 17.8 72 72 SE 5 7 29.98 1015 10 16.0934 0 0
10:15 pm 22:15 Clear 70 21 66 18.7 87 87 E 3 6 30 1016 10 16.0934 0 0
10:35 pm 22:35 Clear 71 21.8 64 18 79 79 ESE 5 7 30 1016 10 16.0934 0 0
10:55 pm 22:55 Clear 70 21.1 65 18.1 83 83 E 3 6 30 1016 10 16.0934 0 0
11:15 pm 23:15 Clear 70 20.9 65 18.1 84 84 ESE 6 9 30 1016 10 16.0934 0 0
11:35 pm 23:35 Clear 70 21.3 65 18.1 82 82 SE 5 7 30 1016 10 16.0934 0 0
11:55 pm 23:55 Clear 68 20.2 64 18 87 87 SE 3 6 30.02 1017 10 16.0934 0 0

Powered by AerisWeather